Location: Perryvale
(54.4667°N, 113.3833°W)
Time: 20:01:34
(UTC+00:00)

Transit 2A - Pass Details

Date: 21 May 2024
Orbit: 592 x 959 km, 66.7° (Epoch: 19 June)

Event Time Altitude Azimuth Distance (km) Brightness Sun altitude
Exits shadow 08:46:46 - 257° (WSW) 2,932 8.7 -13.4°
Reaches altitude 10° 08:48:55 10° 266° (W) 2,163 8.1 -13.3°
Maximum altitude 08:53:26 35° 332° (NNW) 1,202 7.4 -13.1°
Drops below altitude 10° 08:58:26 10° 38° (NE) 2,396 9.9 -12.9°
Sets 09:01:14 0° 47° (NE) 3,395 10.6 -12.7°
